Jackson, MN

10:47 PM CDT on September 26, 2016 (GMT -0500)
Jackson Municipal

Weather History for KMJQ - December, 2011

Change the Weather History Date:

Monday, December 19, 2011

  Actual Average Record
Temperature  
Mean Temperature 29 °F -  
Max Temperature 37 °F 24 °F 41 °F (2006)
Min Temperature 21 °F 10 °F -9 °F (1996)
Degree Days  
Heating Degree Days 36    
Moisture  
Dew Point 24 °F    
Average Humidity 80    
Maximum Humidity 93    
Minimum Humidity 60    
Precipitation  
Precipitation 0.00 in - - ()
Sea Level Pressure  
Sea Level Pressure 30.09 in    
Wind  
Wind Speed 14 mph (NNW)    
Max Wind Speed 23 mph    
Max Gust Speed 31 mph    
Visibility 10 miles    
Events      
Averages and records for this station are not official NWS values.
T = Trace of Precipitation, MM = Missing Value Source: NWS Daily Summary

Daily Weather History Graph

Daily Weather History Graph

Search for Another Location

Airport or City:

Trip Planner

Search our weather history database for the weather conditions in past years. The results will help you decide how hot, cold, wet, or windy it might be!

Date:

Astronomy

Dec. 19, 2011 Rise Set
Actual Time 7:49 AM CST 4:44 PM CST
Civil Twilight 7:16 AM CST 5:17 PM CST
Nautical Twilight 6:39 AM CST 5:54 PM CST
Astronomical Twilight 6:04 AM CST 6:29 PM CST
Moon 1:53 AM CST (12/19) 12:50 PM CST (12/19)
Length of Visible Light 10h 01m
Length of Day
8h 55m
Waning Crescent, 31% of the Moon is Illuminated
Dec 19
Waning Crescent
Dec 24
New
Jan 1
First Quarter
Jan 9
Full
Jan 16
Last Quarter

Hourly Weather History & Observations

Time (CST) Temp. Windchill Dew Point Humidity Pressure Visibility Wind Dir Wind Speed Gust Speed Precip Events Conditions
12:12 AM 35.6 °F 27.5 °F 32.0 °F 87% 29.79 in 10.0 mi West 11.5 mph - N/A   Clear
12:33 AM 35.6 °F 29.2 °F 32.0 °F 87% 29.81 in 10.0 mi West 8.1 mph - N/A   Clear
12:53 AM 37.4 °F 28.2 °F 32.0 °F 81% 29.81 in 10.0 mi NNW 16.1 mph 21.9 mph N/A   Clear
1:12 AM 37.4 °F 28.2 °F 32.0 °F 81% 29.81 in 10.0 mi NNW 16.1 mph - N/A   Clear
1:33 AM 35.6 °F 26.2 °F 32.0 °F 87% 29.82 in 10.0 mi NNW 15.0 mph 21.9 mph N/A   Clear
1:53 AM 35.6 °F 27.1 °F 32.0 °F 87% 29.83 in 10.0 mi NNW 12.7 mph 20.7 mph N/A   Clear
2:12 AM 35.6 °F 26.2 °F 30.2 °F 81% 29.84 in 10.0 mi NNW 15.0 mph 19.6 mph N/A   Clear
2:33 AM 33.8 °F 23.9 °F 30.2 °F 87% 29.86 in 10.0 mi NNW 15.0 mph 21.9 mph N/A   Clear
2:53 AM 33.8 °F 23.5 °F 30.2 °F 87% 29.87 in 10.0 mi NNW 16.1 mph 24.2 mph N/A   Clear
3:12 AM 32.0 °F 21.2 °F 30.2 °F 93% 29.88 in 10.0 mi NNW 16.1 mph 23.0 mph N/A   Clear
3:33 AM 32.0 °F 21.2 °F 30.2 °F 93% 29.90 in 10.0 mi NNW 16.1 mph 24.2 mph N/A   Clear
3:52 AM 32.0 °F 21.2 °F 30.2 °F 93% 29.91 in 10.0 mi NNW 16.1 mph 24.2 mph N/A   Clear
4:12 AM 32.0 °F 19.8 °F 30.2 °F 93% 29.91 in 10.0 mi NNW 20.7 mph 28.8 mph N/A   Scattered Clouds
4:32 AM 32.0 °F 19.5 °F 30.2 °F 93% 29.92 in 10.0 mi NNW 21.9 mph 31.1 mph N/A   Overcast
4:52 AM 32.0 °F 19.8 °F 30.2 °F 93% 29.94 in 10.0 mi NNW 20.7 mph 27.6 mph N/A   Overcast
5:13 AM 30.2 °F 18.1 °F 28.4 °F 93% 29.95 in 10.0 mi NNW 18.4 mph 28.8 mph N/A   Overcast
5:33 AM 30.2 °F 18.5 °F 28.4 °F 93% 29.98 in 10.0 mi NNW 17.3 mph 25.3 mph N/A   Overcast
5:53 AM 30.2 °F 18.9 °F 28.4 °F 93% 29.99 in 10.0 mi NNW 16.1 mph 26.5 mph N/A   Overcast
6:12 AM 30.2 °F 18.9 °F 28.4 °F 93% 30.01 in 10.0 mi NNW 16.1 mph 25.3 mph N/A   Overcast
6:32 AM 30.2 °F 19.3 °F 28.4 °F 93% 30.03 in 10.0 mi NNW 15.0 mph 25.3 mph N/A   Overcast
6:53 AM 28.4 °F 15.8 °F 26.6 °F 93% 30.05 in 10.0 mi NNW 18.4 mph 29.9 mph N/A   Mostly Cloudy
7:12 AM 28.4 °F 14.7 °F 23.0 °F 80% 30.06 in 10.0 mi NNW 21.9 mph 28.8 mph N/A   Clear
7:33 AM 28.4 °F 15.8 °F 23.0 °F 80% 30.07 in 10.0 mi NNW 18.4 mph 25.3 mph N/A   Clear
7:53 AM 26.6 °F 13.8 °F 23.0 °F 86% 30.07 in 10.0 mi NNW 17.3 mph 20.7 mph N/A   Clear
8:12 AM 26.6 °F 13.8 °F 21.2 °F 80% 30.09 in 10.0 mi NNW 17.3 mph 26.5 mph N/A   Clear
8:33 AM 26.6 °F 14.3 °F 21.2 °F 80% 30.10 in 10.0 mi NNW 16.1 mph 25.3 mph N/A   Clear
8:52 AM 28.4 °F 17.5 °F 21.2 °F 74% 30.12 in 10.0 mi North 13.8 mph 23.0 mph N/A   Clear
9:13 AM 28.4 °F 16.2 °F 21.2 °F 74% 30.13 in 10.0 mi North 17.3 mph 24.2 mph N/A   Clear
9:33 AM 28.4 °F 16.6 °F 21.2 °F 74% 30.14 in 10.0 mi North 16.1 mph 23.0 mph N/A   Clear
9:52 AM 30.2 °F 17.8 °F 21.2 °F 69% 30.15 in 10.0 mi North 19.6 mph 25.3 mph N/A   Clear
10:12 AM 30.2 °F 17.8 °F 21.2 °F 69% 30.16 in 10.0 mi North 19.6 mph 24.2 mph N/A   Clear
10:33 AM 30.2 °F 17.8 °F 21.2 °F 69% 30.17 in 10.0 mi North 19.6 mph 27.6 mph N/A   Clear
11:12 AM 32.0 °F 19.2 °F 23.0 °F 69% 30.18 in 10.0 mi NNW 23.0 mph 31.1 mph N/A   Clear
11:32 AM 32.0 °F 19.8 °F 23.0 °F 69% 30.18 in 10.0 mi North 20.7 mph 27.6 mph N/A   Clear
12:13 PM 32.0 °F 20.5 °F 23.0 °F 69% 30.17 in 10.0 mi North 18.4 mph 28.8 mph N/A   Clear
12:32 PM 32.0 °F 19.8 °F 23.0 °F 69% 30.17 in 10.0 mi North 20.7 mph 29.9 mph N/A   Clear
12:47 PM 32.0 °F 21.2 °F 23.0 °F 69% 30.18 in 10.0 mi North 16.1 mph 26.5 mph N/A   Clear
1:25 PM 32.0 °F 21.6 °F 23.0 °F 69% 30.18 in 10.0 mi North 15.0 mph 21.9 mph N/A   Clear
1:45 PM 32.0 °F 21.6 °F 23.0 °F 69% 30.17 in 10.0 mi North 15.0 mph 24.2 mph N/A   Scattered Clouds
2:05 PM 32.0 °F 22.1 °F 23.0 °F 69% 30.16 in 10.0 mi North 13.8 mph 21.9 mph N/A   Scattered Clouds
2:25 PM 32.0 °F 22.1 °F 23.0 °F 69% 30.17 in 10.0 mi North 13.8 mph 21.9 mph N/A   Clear
2:45 PM 32.0 °F 21.6 °F 23.0 °F 69% 30.17 in 10.0 mi North 15.0 mph 20.7 mph N/A   Scattered Clouds
3:05 PM 32.0 °F 22.1 °F 23.0 °F 69% 30.17 in 10.0 mi North 13.8 mph 23.0 mph N/A   Scattered Clouds
3:25 PM 32.0 °F 21.2 °F 21.2 °F 64% 30.17 in 10.0 mi North 16.1 mph 21.9 mph N/A   Scattered Clouds
3:45 PM 32.0 °F 22.5 °F 19.4 °F 60% 30.19 in 10.0 mi North 12.7 mph 21.9 mph N/A   Clear
4:05 PM 30.2 °F 22.6 °F 21.2 °F 69% 30.21 in 10.0 mi North 8.1 mph 16.1 mph N/A   Clear
4:25 PM 30.2 °F 23.4 °F 21.2 °F 69% 30.21 in 10.0 mi North 6.9 mph - N/A   Clear
4:45 PM 28.4 °F 24.6 °F 21.2 °F 74% 30.23 in 10.0 mi North 3.5 mph - N/A   Clear
5:05 PM 26.6 °F 22.6 °F 19.4 °F 74% 30.24 in 10.0 mi North 3.5 mph - N/A   Clear
5:25 PM 24.8 °F 19.1 °F 19.4 °F 80% 30.25 in 10.0 mi North 4.6 mph - N/A   Clear
5:45 PM 24.8 °F 19.1 °F 19.4 °F 80% 30.25 in 10.0 mi North 4.6 mph - N/A   Clear
6:05 PM 23.0 °F 18.4 °F 19.4 °F 86% 30.26 in 10.0 mi North 3.5 mph - N/A   Clear
6:25 PM 23.0 °F 15.8 °F 19.4 °F 86% 30.27 in 10.0 mi North 5.8 mph - N/A   Clear
6:45 PM 23.0 °F 15.8 °F 19.4 °F 86% 30.26 in 10.0 mi North 5.8 mph - N/A   Clear
7:05 PM 23.0 °F 15.8 °F 19.4 °F 86% 30.25 in 10.0 mi North 5.8 mph - N/A   Clear
7:25 PM 23.0 °F 14.7 °F 17.6 °F 80% 30.25 in 10.0 mi North 6.9 mph - N/A   Clear
7:45 PM 23.0 °F 14.7 °F 17.6 °F 80% 30.25 in 10.0 mi NNW 6.9 mph - N/A   Clear
8:05 PM 21.2 °F 12.6 °F 17.6 °F 86% 30.25 in 10.0 mi NNW 6.9 mph - N/A   Clear
8:25 PM 23.0 °F 18.4 °F 17.6 °F 80% 30.25 in 10.0 mi NNW 3.5 mph - N/A   Clear
8:45 PM 21.2 °F 14.9 °F 17.6 °F 86% 30.25 in 10.0 mi NNW 4.6 mph - N/A   Clear
9:05 PM 19.4 °F 12.8 °F 17.6 °F 93% 30.26 in 10.0 mi NNW 4.6 mph - N/A   Clear
9:25 PM 19.4 °F 11.5 °F 15.8 °F 86% 30.26 in 10.0 mi NNW 5.8 mph - N/A   Clear
9:45 PM 19.4 °F 12.8 °F 15.8 °F 86% 30.25 in 10.0 mi NNW 4.6 mph - N/A   Clear
10:05 PM 19.4 °F 14.3 °F 17.6 °F 93% 30.25 in 10.0 mi North 3.5 mph - N/A   Clear
10:25 PM 19.4 °F 9.5 °F 15.8 °F 86% 30.25 in 10.0 mi NNW 8.1 mph - N/A   Clear
10:45 PM 17.6 °F 10.7 °F 15.8 °F 93% 30.25 in 10.0 mi NW 4.6 mph - N/A   Clear
11:05 PM 17.6 °F 8.2 °F 15.8 °F 93% 30.24 in 10.0 mi NNW 6.9 mph - N/A   Clear
11:25 PM 17.6 °F 10.7 °F 15.8 °F 93% 30.23 in 10.0 mi NW 4.6 mph - N/A   Clear
11:45 PM 17.6 °F 12.3 °F 14.0 °F 86% 30.23 in 10.0 mi NW 3.5 mph - N/A   Clear